www.pogodaiklimat.ru
ПОГОДА в Уискассете
Время
и дата
03:53 30.01
04:53 30.01
05:53 30.01
06:53 30.01
07:53 30.01
08:53 30.01
09:53 30.01
10:53 30.01
11:53 30.01
12:53 30.01
13:53 30.01
14:53 30.01
15:53 30.01
16:53 30.01
17:22 30.01
17:53 30.01
18:53 30.01
19:53 30.01
20:53 30.01
21:53 30.01
22:46 30.01
22:53 30.01
23:07 30.01
23:21 30.01
23:53 30.01
00:01 31.01
00:26 31.01
00:45 31.01
00:53 31.01
01:03 31.01
01:10 31.01
01:23 31.01
01:53 31.01
02:11 31.01
02:22 31.01
02:30 31.01
02:53 31.01
03:08 31.01
03:43 31.01
03:53 31.01
04:15 31.01
04:27 31.01
04:37 31.01
04:53 31.01
05:33 31.01
05:37 31.01
05:53 31.01
06:53 31.01
Ветер
(напр.,м/с)
Видим. Явления Облачность Т
(С)
Тd
(С)
f
(%)
Тe
(С)
Тes
(С)
Комфортность P
(гПа)
Po
(гПа)
Тmin
(С)
Tmax
(С)
R
(мм)
R24
(мм)
S
(см)
нст 2 16 км 10/10 1500 м +2.2 -1.1 79 -1 -1 1018.4 1016.6
нст 2 16 км 10/10 870 м +2.8 -1.1 75 0 0 1019.5 1017.6
штиль 0 16 км 10/10 1650 м +2.2 -1.7 75 +1 +1 1020.0 1017.9
штиль 0 16 км ясно +1.1 -3.3 72 0 0 1021.4 1019.3 -1.7 +2.8 0.3
нст 2 16 км ясно -0.6 -7.2 61 -4 -4 1022.7 1020.6
нст 3 16 км ясно 0.0 -9.4 49 -4 -3 1022.7 1020.6
нст 2 16 км ясно +0.6 -9.4 47 -2 0 1022.8 1021.0
СВ 2 16 км 2/2 1110 м +1.1 -9.4 45 -2 +2 1022.5 1020.6
В 2 16 км 5/5 1260 м +1.7 -8.9 45 -1 +2 1022.0 1020.0
штиль 0 16 км 10/10 1230 м +2.2 -8.9 44 +2 +2 1021.3 1019.3 -0.6 +2.2
штиль 0 16 км 10/10 1200 м +2.2 -8.3 46 +2 +2 1020.3 1018.3
ЮЗ 3 16 км 5/5 1110 м +2.8 -6.7 50 -1 +1 1019.8 1017.6
Ю 2 16 км 10/10 1110 м +2.2 -5.0 59 -1 -1 1020.2 1018.3
ЮВ 2 16 км 10/10 1170 м +1.7 -5.6 58 -1 -1 1019.6 1017.6
штиль 0 16 км 10/10 780 м +1.7 -5.6 58 +1 +1 1017.9
штиль 0 16 км 10/10 720 м +1.7 -5.0 61 +1 +1 1020.0 1017.9
штиль 0 14 км слабый снег 10/10 690 m
[Ns]
+1.1 -3.9 69 0 0 1019.9 1017.6 +1.1 +3.3
штиль 0 16 км 10/10 660 м +1.1 -3.9 69 0 0 1019.5 1017.3
штиль 0 16 км 10/10 570 м +0.6 -4.4 69 0 0 1019.0 1016.9
нст 2 8 км слабый снег 10/10 510 m
[Ns]
0.0 -3.9 75 -3 -3 1019.4 1017.3
нст 2 3 км слабый снег, дымка 10/10 540 m
[Ns]
-1.7 -3.9 85 -6 -6 1017.3
нст 2 3 км слабый снег, дымка 10/10 510 m
[Ns]
-1.7 -3.9 85 -6 -6 1019.3 1017.3
нст 2 2 км слабый снег, дымка 10/10 510 m
[Ns]
-1.7 -3.9 85 -6 -6 1016.9
нст 2 3 км слабый снег, дымка 10/10 570 m
[Ns]
-1.7 -3.9 85 -6 -6 1017.3
нст 2 3 км слабый снег, дымка 10/10 180 m
[Ns]
-2.2 -4.4 85 -6 -6 1019.0 1016.9
штиль 0 4 км слабый снег, дымка 10/10 240 m
[Ns]
-2.2 -4.4 85 -3 -3 1016.9
нст 2 2 км слабый снег 10/10 570 m
[Ns]
-2.2 -5.0 81 -6 -6 1016.6
нст 2 3 км слабый снег, дымка 10/10 570 m
[Ns]
-2.8 -5.0 85 -7 -7 1016.6
штиль 0 3 км слабый снег, дымка 10/10 600 m
[Ns]
-2.8 -5.0 85 -4 -4 1018.5 1016.2 -2.8 +1.1
штиль 0 3 км слабый снег, дымка 10/10 240 m
[Ns]
-2.2 -4.4 85 -3 -3 1016.2
нст 2 2 км слабый снег, дымка 10/10 240 m
[Ns]
-2.8 -5.0 85 -7 -7 1016.2
штиль 0 4 км слабый снег, дымка 10/10 510 m
[Ns]
-2.8 -5.0 85 -4 -4 1016.2
С 2 2 км слабый снег, дымка 10/10 720 m
[Ns]
-2.2 -4.4 85 -6 -6 1018.6 1016.6
штиль 0 3 км слабый снег, дымка 10/10 180 m
[Ns]
-2.8 -4.4 89 -4 -4 1016.6
штиль 0 3 км слабый снег, дымка 10/10 720 m
[Ns]
-2.8 -5.0 85 -4 -4 1016.6
штиль 0 3 км слабый снег, дымка 10/10 780 m
[Ns]
-2.8 -5.0 85 -4 -4 1016.6
нст 2 3 км слабый снег, дымка 10/10 660 m
[Ns]
-2.8 -5.0 85 -7 -7 1018.9 1016.6
штиль 0 2 км слабый снег, дымка 10/10 540 m
[Ns]
-3.3 -5.0 88 -4 -4 1016.9
штиль 0 2 км слабый снег, дымка ?/? -3.3 -5.6 84 -4 -4 1016.9
нст 2 2 км слабый снег, дымка 10/10 480 m
[Ns]
-3.3 -5.6 84 -7 -7 1019.3 1017.3
штиль 0 2 км слабый снег, дымка ?/? -3.3 -5.6 84 -4 -4 1017.6
нст 2 2 км слабый снег, дымка ?/? -3.3 -5.6 84 -7 -7 1017.3
нст 2 2 км слабый снег, дымка 10/10 450 m
[Ns]
-3.3 -5.6 84 -7 -7 1017.3
штиль 0 2 км слабый снег, дымка 10/10 540 m
[Ns]
-3.3 -5.6 84 -4 -4 1019.5 1017.3
штиль 0 4 км слабый снег, дымка 10/10 810 m
[Ns]
-3.9 -6.1 85 -5 -5 1017.6
С 2 5 км слабый снег, дымка 10/10 930 m
[Ns]
-3.9 -6.1 85 -8 -8 1017.3
штиль 0 10 км слабый снег, дымка 10/10 1350 m
[Ns]
-3.9 -6.1 85 -5 -5 1019.5 1017.6
штиль 0 16 км 10/0 2400 m
[Ac]
-3.9 -6.1 85 -5 -5 1020.1 1017.9 -3.9 -2.2
Местоположение метеостанции Wiscasset Airport: широта 43.9640 долгота -69.7108 высота над уровнем моря 16 м.
В архиве по умолчанию представлена погода в Уискассете за последние 1-2 суток. Обновление информации о фактической погоде в базе происходит ежечасно! Архивные данные за месяц целиком и за предыдущие месяцы Вы можете получить, выбрав интересующий диапазон дат из раскрывающегося списка и нажав кнопку "Ввод!".
Внимание! Архив погоды МЕТАР в базе сайта по станциям, не включенным в климатический монитор, хранится не более 60 дней. Нет смысла пытаться выбрать более раннюю дату.
*Определитесь, кто Вы:
Внимание! Время в таблицах - местное (без учета летнего времени). Для получения всемирного времени необходимо вычесть поправку, которая равна -5 ч.
Смотрите также архив погоды в соседних городах и на ближайших метеорологических станциях:
Партнеры нашего сайта:      
Пояснения к столбцам:
  • Ветер - указаны скорость ветра в м/с - средняя за 10 мин, порывы в срок и между сроками (в фигурных скобках) и направление, откуда дует ветер: С - северный,
  • СВ - северо-восточный, В - восточный, ЮВ - юго-восточный, Ю - южный, ЮЗ - юго-западный, З - западный, СЗ - северо-западный.
  • Видимость - горизонтальная дальность видимости в метрах или километрах. При видимости от 1 до 10 км при отсутствии осадков обычно наблюдается дымка, при ухудшении видимости до 1 км и менее - туман. В сухую погоду видимость может ухудшаться дымом, пылью или мглою.
  • Явления - указаны атмосферные явления, наблюдавшиеся в срок или в последний час перед сроком; фигурными скобками обозначены явления, наблюдавшиеся между сроками (за 1-3 часа до срока); квадратными скобками обозначены град или гололедные отложения с указанием их диаметра в мм.
  • Облачность - указаны через наклонную черту общая и нижняя облачность в баллах и высота нижней границы облаков в метрах; квадратными скобками обозначены формы облаков: Ci - перистые, Cs - перисто-слоистые, Cc - перисто-кучевые, Ac - высококучевые, As - высокослоистые, Sc - слоисто-кучевые, Ns - слоисто-дождевые, Cu - кучевые, Cb - кучево-дождевые. Подробнее классификацию облаков см. в Атласе облаков (PDF).
  • T - Температура воздуха - температура, измеренная на высоте 2 м над землей.
  • Td - Температура точки росы - температура, при понижении до которой содержащийся в воздухе водяной пар достигнет насыщения.
  • f - Относительная влажность воздуха - влажноcть воздуха, измеренная на высоте 2 м над землей.
  • Te - Эффективная температура - температура, которую ощущает одетый по сезону человек в тени. Характеристика душности погоды. При расчете учитывается влияние влажности воздуха и скорости ветра на теплоощущения человека.
  • Tes - Эффективная температура на солнце - температура, которую ощущает человек, с поправкой на солнечный нагрев. Характеристика знойности погоды. Зависит от высоты солнца над горизонтом, облачности и скорости ветра. Ночью, в пасмурную погоду, а также при ветре 12 м/с и более поправка равна нулю.
  • P - Атмосферное давление - приведенное к уровню моря атмосферное давление.
  • Po - Атмосферное давление - измеренное на уровне метеостанции атмосферное давление.
  • Tmin - Минимальная температура - минимум температуры воздуха на высоте 2 м над землей.
  • Tmax - Максимальная температура - максимум температуры воздуха на высоте 2 м над землей.
  • R - Количество осадков - Количество выпавших осадков за период времени, мм. При наведении курсора мыши на число - период времени, за который выпало указанное количество осадков.
  • R24 - Количество осадков - Количество выпавших осадков за 24 часа, мм.
  • S - Снежный покров - Высота снежного покрова, см. При наведении курсора мыши на число - состояние снежного покрова и степень покрытия местности в баллах.